EW9965 Weather Reports


time (UTC)temp
C
wind
direction
speed
KPH
gust
KPH
rain 1hr
cm
rain 24hr
cm
rain mn
cm
humidity
%
barometer
mb
20260506044508 13 202 0.0 0.0 0.00 0.58 0.58 73 1017.5
20260506043007 13 202 0.0 0.0 0.00 0.58 0.58 71 1017.4
20260506041503 13 202 0.0 0.0 0.00 0.58 0.58 70 1017.2
20260506040001 14 202 0.0 0.0 0.00 0.58 0.58 70 1017.1
20260506034606 14 202 0.0 0.0 0.00 0.58 0.58 70 1016.9
20260506033059 14 220 0.0 6.4 0.00 0.58 0.58 69 1016.7
20260506031557 15 181 1.6 9.7 0.00 0.58 0.58 68 1016.5
20260506030057 15 259 0.0 9.7 0.00 0.58 0.58 67 1016.2
20260506024559 15 235 0.0 8.0 0.00 0.58 0.58 65 1015.9
20260506023053 15 224 3.2 9.7 0.00 0.58 0.58 64 1015.7
20260506021602 16 239 4.8 12.9 0.00 0.58 0.58 62 1015.4
20260506020052 16 195 1.6 16.1 0.00 0.58 0.58 59 1015.2
20260506014551 17 180 4.8 16.1 0.00 0.58 0.58 59 1015.1
20260506013057 17 255 6.4 16.1 0.00 0.58 0.58 56 1015.0
20260506011603 17 195 8.0 17.7 0.00 0.58 0.58 56 1014.9
20260506010050 18 233 4.8 19.3 0.00 0.58 0.58 55 1014.8
20260506004550 18 209 3.2 20.9 0.00 0.58 0.58 52 1014.7
20260506003049 19 238 8.0 22.5 0.00 0.58 0.58 51 1014.6
20260506001551 20 265 8.0 19.3 0.00 0.58 0.58 50 1014.5
20260506000049 20 269 8.0 19.3 0.00 0.58 0.58 48 1014.5
20260505234551 20 178 3.2 19.3 0.00 0.58 0.58 50 1014.5
20260505233046 18 207 6.4 17.7 0.00 0.58 0.58 53 1014.6
20260505231601 18 267 4.8 17.7 0.00 0.58 0.58 51 1014.6
20260505230050 20 235 8.0 25.7 0.00 0.58 0.58 47 1014.7
20260505224544 20 266 4.8 12.9 0.00 0.58 0.58 49 1014.8
20260505223043 20 182 9.7 17.7 0.00 0.58 0.58 49 1014.8
20260505221542 20 201 6.4 19.3 0.00 0.58 0.58 47 1014.9
20260505220042 20 220 6.4 22.5 0.00 0.58 0.58 52 1015.0
20260505214602 19 236 6.4 22.5 0.00 0.58 0.58 54 1015.1
20260505213040 20 226 3.2 16.1 0.00 0.58 0.58 51 1015.1
20260505211539 20 249 6.4 17.7 0.00 0.58 0.58 53 1015.3
20260505210039 20 230 9.7 22.5 0.00 0.58 0.58 51 1015.4
20260505204536 20 180 6.4 17.7 0.00 0.58 0.58 53 1015.4
20260505203034 18 174 6.4 16.1 0.00 0.58 0.58 55 1015.6
20260505201531 18 182 6.4 19.3 0.00 0.58 0.58 58 1015.5
20260505200040 18 222 4.8 14.5 0.00 0.58 0.58 57 1015.6
20260505194527 17 256 6.4 16.1 0.00 0.58 0.58 60 1015.8
20260505193023 16 230 4.8 16.1 0.00 0.58 0.58 65 1016.0
20260505191521 16 278 4.8 14.5 0.00 0.58 0.58 70 1016.0
20260505190026 16 203 4.8 12.9 0.00 0.58 0.58 71 1016.0
20260505184520 16 259 6.4 14.5 0.00 0.58 0.58 75 1015.9
20260505183021 15 149 1.6 8.0 0.00 0.58 0.58 80 1015.9
20260505181512 15 223 0.0 3.2 0.00 0.58 0.58 86 1016.1
20260505180015 13 11 0.0 0.0 0.00 0.58 0.58 85 1016.0
20260505174511 13 292 1.6 8.0 0.00 0.58 0.58 86 1015.9
20260505173009 13 159 1.6 11.3 0.00 0.58 0.58 86 1015.6
20260505171509 13 193 3.2 11.3 0.00 0.58 0.58 86 1015.5
20260505170008 13 205 1.6 11.3 0.00 0.58 0.58 87 1015.3
20260505164504 13 139 0.0 6.4 0.00 0.58 0.58 88 1015.3
20260505163009 13 119 1.6 4.8 0.00 0.58 0.58 90 1015.3
20260505161502 12 200 0.0 6.4 0.00 0.58 0.58 92 1015.2
20260505153102 12 21 0.0 0.0 0.20 0.58 0.58 91 1015.1
20260505151604 12 322 0.0 6.4 0.20 0.58 0.58 91 1014.9
20260505140107 12 163 0.0 6.4 0.10 0.38 0.38 91 1014.3
20260505124536 12 200 0.0 3.2 0.03 0.28 0.28 91 1013.5
20260505123032 12 226 0.0 3.2 0.03 0.28 0.28 91 1013.4
20260505121537 12 199 0.0 3.2 0.00 0.25 0.25 91 1013.4
20260505120042 12 199 0.0 6.4 0.00 0.25 0.25 90 1013.4
20260505114532 13 195 0.0 3.2 0.00 0.25 0.25 90 1013.4
20260505113028 13 156 0.0 6.4 0.03 0.25 0.25 90 1013.4
20260505111527 13 177 0.0 9.7 0.05 0.25 0.25 90 1013.4
20260505101538 12 168 1.6 8.0 0.05 0.20 0.20 88 1013.5
20260505100023 12 149 3.2 11.3 0.10 0.20 0.20 88 1013.7
20260505094531 12 170 3.2 8.0 0.15 0.20 0.20 87 1013.6
20260505093018 12 107 0.0 8.0 0.20 0.20 0.20 86 1013.9
20260505091515 13 149 1.6 8.0 0.13 0.13 0.13 86 1014.1
20260505090019 13 188 0.0 3.2 0.10 0.10 0.10 85 1014.0
20260505084512 13 115 1.6 9.7 0.05 0.05 0.05 84 1014.2
20260505083017 13 122 3.2 16.1 0.00 0.00 0.00 83 1014.3
20260505081507 13 161 6.4 14.5 0.00 0.00 0.00 82 1014.5
20260505080006 14 192 0.0 12.9 0.00 0.00 0.00 81 1014.5
20260505074600 14 177 6.4 12.9 0.00 0.00 0.00 78 1014.6
20260505073129 15 197 6.4 11.3 0.00 0.00 0.00 77 1014.5
20260505071602 15 179 3.2 9.7 0.00 0.00 0.00 76 1014.6
20260505070100 15 154 1.6 11.3 0.00 0.00 0.00 75 1014.7
20260505064553 15 162 3.2 11.3 0.00 0.00 0.00 75 1014.8
20260505063052 15 168 3.2 11.3 0.00 0.00 0.00 75 1014.8
20260505061552 15 165 3.2 11.3 0.00 0.00 0.00 75 1015.0
20260505060053 15 161 4.8 11.3 0.00 0.00 0.00 74 1015.1
20260505054551 15 126 6.4 12.9 0.00 0.00 0.00 74 1015.2
20260505053051 15 149 4.8 11.3 0.00 0.00 0.00 73 1015.4
20260505051602 15 170 6.4 11.3 0.00 0.00 0.00 72 1015.6